220  
ASUS45 KREV 270910  
RWRNV  
NEVADA REGIONAL WEATHER ROUNDUP  
NATIONAL WEATHER SERVICE RENO NV  
200 AM PDT SAT MAY 27 2017  
 
NOTE: "FAIR" INDICATES FEW OR NO CLOUDS BELOW 12,000 FEET WITH NO  
SIGNIFICANT WEATHER AND/OR S TO VISIBILITY
.  
 
NVZ001-003-004-271000-  
WESTERN NEVADA  
 
CITY SKY/WX TMP DP RH WIND PRES REMARKS
 
RENO CLEAR 59 33 37 N5 30.10R  
CARSON CITY FAIR 59 28 31 NE14G24 30.11R  
MINDEN FAIR 50 32 50 N12 30.10S  
FALLON CLEAR 58 28 32 E3 30.07R  
LOVELOCK CLEAR 50 30 46 NE6 30.09R  
HAWTHORNE CLEAR 59 27 29 W5 30.08R  

 
 
NVZ002-CAZ072-073-271000-  
NORTHERN AND CENTRAL SIERRA  
 
CITY SKY/WX TMP DP RH WIND PRES REMARKS
 
S. LAKE TAHOE CLEAR 41 36 82 SW6 30.14S  
TRUCKEE FOG 36 36 100 CALM 30.16R VSB 3/4  
SQUAW VLY 8000 N/A 37 32 81 E5 N/A  
SUSANVILLE CLEAR 48 37 66 W7 30.10R  
MAMMOTH LAKES FAIR 42 28 56 W7 30.19S  
BRIDGEPORT FAIR 39 26 59 CALM 30.16R  

 
 
NVZ030-031-036-271000-  
NORTHERN NEVADA  
 
CITY SKY/WX TMP DP RH WIND PRES REMARKS
 
ELKO CLEAR 41 33 73 CALM 30.15R  
WINNEMUCCA CLEAR 39 32 76 CALM 30.12R  
WENDOVER CLEAR 51 36 56 CALM 30.13S  

 
 
NVZ035-037-271000-  
CENTRAL NEVADA  
 
CITY SKY/WX TMP DP RH WIND PRES REMARKS
 
ELY PTCLDY 41 24 51 NW3 30.16R  
EUREKA N/A 34 26 72 CALM 30.15R  

 
 
NVZ013-014-271000-  
SOUTH CENTRAL NEVADA  
 
CITY SKY/WX TMP DP RH WIND PRES REMARKS
 
TONOPAH CLEAR 52 26 36 N12 30.11R  

 
 
NVZ017-020-022-271000-  
SOUTHERN NEVADA  
 
CITY SKY/WX TMP DP RH WIND PRES REMARKS
 
LAS VEGAS CLEAR 76 18 11 S9 29.83R  
N. LAS VEGAS CLEAR 74 23 15 N3 29.84R  
NELLIS AFB CLEAR 75 28 18 SW3 29.83R  
HENDERSON CLEAR 72 29 20 S13 29.89R  
MERCURY CLEAR 69 26 20 N12 29.93R  

 
 
 
CLICK HERE TO GO TO PREVIOUS BULLETINS.

The Nexlab NV Page Main Text Page